Total_Precipitation_Accumulation
1.33 1.44 1.46 1.27 1.01 0.90 0.91 0.93 0.94 0.95 0.98 1.01 0.92 0.90 0.97 1.01 0.96 1.05 1.15 1.25 1.35 1.45 1.46 1.51 1.58 1.57 1.73 1.78 1.89 2.02 2.09 2.08 1.86 1.62 1.47 1.47 1.51 1.53 1.50 1.41 1.41 1.44 1.37
1.19 1.19 1.03 0.85 0.74 0.71 0.69 0.68 0.68 0.72 0.72 0.73 0.68 0.65 0.72 0.86 0.89 0.97 1.01 1.01 1.11 1.24 1.32 1.37 1.36 1.37 1.49 1.57 1.67 1.75 1.91 1.99 1.91 1.72 1.55 1.45 1.34 1.41 1.59 1.61 1.59 1.49 1.49
0.78 0.82 0.79 0.70 0.66 0.64 0.61 0.59 0.57 0.62 0.66 0.65 0.59 0.59 0.61 0.70 0.84 0.91 0.93 0.91 0.93 0.96 1.03 1.06 1.11 1.21 1.37 1.42 1.44 1.55 1.71 1.80 1.91 1.79 1.64 1.54 1.38 1.34 1.55 1.54 1.58 1.76 1.65
0.56 0.60 0.62 0.61 0.60 0.62 0.63 0.60 0.57 0.58 0.61 0.61 0.55 0.52 0.59 0.69 0.77 0.87 0.89 0.85 0.84 0.88 0.92 0.90 0.89 0.95 1.09 1.25 1.33 1.50 1.67 1.82 1.90 1.83 1.75 1.69 1.59 1.46 1.56 1.70 1.75 1.82 1.82
0.46 0.46 0.53 0.57 0.57 0.55 0.57 0.55 0.54 0.54 0.54 0.54 0.51 0.52 0.56 0.61 0.66 0.82 0.85 0.84 0.87 0.83 0.85 0.87 0.89 0.89 0.92 1.00 0.99 1.19 1.40 1.65 1.76 1.82 1.81 1.81 1.72 1.64 1.55 1.72 1.82 1.93 2.01
0.34 0.36 0.44 0.51 0.53 0.54 0.53 0.51 0.50 0.51 0.52 0.52 0.50 0.51 0.51 0.48 0.72 0.82 0.82 0.84 0.91 0.94 0.91 0.89 0.86 0.85 0.94 0.94 0.91 0.94 1.09 1.26 1.42 1.53 1.59 1.62 1.66 1.74 1.84 1.86 1.86 1.91 1.95
0.32 0.35 0.42 0.44 0.43 0.47 0.49 0.45 0.42 0.46 0.49 0.51 0.51 0.50 0.50 0.49 0.55 0.59 0.68 0.78 0.91 0.95 0.90 0.98 1.01 0.90 0.93 0.97 1.02 0.95 0.88 0.92 1.08 1.27 1.38 1.42 1.51 1.59 1.84 1.88 1.89 1.91 1.79
0.32 0.34 0.39 0.40 0.41 0.39 0.42 0.39 0.39 0.43 0.48 0.49 0.56 0.54 0.48 0.44 0.48 0.48 0.55 0.65 0.78 0.82 0.82 0.91 1.14 1.16 1.05 1.05 1.11 1.15 1.02 0.86 0.87 0.93 1.11 1.28 1.35 1.54 1.89 2.10 2.06 1.83 1.74
0.34 0.32 0.34 0.37 0.40 0.40 0.35 0.35 0.36 0.42 0.45 0.44 0.47 0.51 0.48 0.44 0.46 0.48 0.51 0.58 0.67 0.68 0.72 0.84 0.98 1.09 1.07 1.08 1.04 1.10 1.12 0.98 0.94 0.97 0.95 1.06 1.24 1.43 1.73 2.02 2.12 2.05 1.83
0.34 0.35 0.36 0.36 0.34 0.36 0.36 0.36 0.37 0.43 0.48 0.50 0.49 0.46 0.44 0.43 0.46 0.49 0.53 0.53 0.57 0.54 0.59 0.77 0.97 0.94 0.94 1.01 1.03 1.12 1.22 1.04 0.96 1.05 1.02 1.05 1.10 1.35 1.73 1.92 2.06 2.07 1.93
0.40 0.43 0.43 0.39 0.39 0.44 0.47 0.45 0.45 0.45 0.48 0.49 0.48 0.45 0.43 0.43 0.49 0.50 0.52 0.50 0.54 0.56 0.58 0.68 0.74 0.75 0.76 0.86 0.94 1.01 1.16 1.07 1.07 1.21 1.24 1.19 1.24 1.29 1.44 1.63 1.87 2.02 1.95
0.43 0.46 0.45 0.45 0.45 0.49 0.54 0.55 0.56 0.55 0.54 0.55 0.55 0.53 0.50 0.47 0.47 0.50 0.52 0.53 0.57 0.56 0.61 0.65 0.62 0.64 0.68 0.73 0.75 0.81 0.99 1.11 1.18 1.33 1.37 1.32 1.26 1.29 1.32 1.38 1.53 1.69 1.70
0.46 0.47 0.48 0.49 0.50 0.50 0.52 0.56 0.59 0.58 0.56 0.56 0.56 0.55 0.56 0.53 0.48 0.50 0.53 0.54 0.57 0.56 0.58 0.65 0.67 0.69 0.71 0.69 0.70 0.76 0.91 1.09 1.28 1.33 1.25 1.18 1.21 1.25 1.26 1.38 1.47 1.54 1.59
0.52 0.53 0.51 0.50 0.50 0.51 0.52 0.53 0.53 0.54 0.53 0.54 0.55 0.54 0.52 0.50 0.44 0.42 0.46 0.50 0.57 0.59 0.62 0.67 0.71 0.72 0.69 0.66 0.73 0.84 0.97 1.16 1.27 1.21 1.17 1.07 1.10 1.24 1.29 1.29 1.33 1.33 1.39
0.57 0.57 0.54 0.50 0.47 0.48 0.47 0.48 0.50 0.50 0.54 0.59 0.60 0.60 0.56 0.50 0.51 0.57 0.54 0.48 0.49 0.54 0.63 0.69 0.74 0.81 0.82 0.85 0.94 1.01 1.01 1.05 1.12 1.06 1.11 1.06 1.05 1.15 1.19 1.17 1.21 1.15 1.11
0.54 0.55 0.52 0.54 0.51 0.47 0.46 0.49 0.56 0.57 0.62 0.59 0.59 0.58 0.54 0.52 0.56 0.53 0.54 0.56 0.56 0.62 0.69 0.74 0.82 0.91 0.96 1.02 1.06 1.04 1.01 1.00 1.04 1.04 1.07 1.07 1.01 1.03 1.06 1.08 1.13 1.17 1.17
0.51 0.48 0.47 0.51 0.52 0.51 0.51 0.51 0.54 0.55 0.54 0.53 0.51 0.51 0.51 0.52 0.49 0.49 0.51 0.54 0.58 0.64 0.67 0.76 0.98 1.01 0.97 0.99 1.03 1.03 0.93 0.87 0.88 0.90 0.91 0.93 0.93 0.94 0.98 1.01 1.04 1.11 1.14
0.57 0.61 0.55 0.50 0.52 0.54 0.55 0.53 0.53 0.55 0.57 0.55 0.50 0.48 0.49 0.50 0.49 0.48 0.51 0.52 0.50 0.52 0.54 0.65 0.82 0.87 0.90 0.94 0.91 0.86 0.81 0.77 0.79 0.78 0.77 0.77 0.80 0.86 0.90 0.94 0.95 0.95 1.02
0.51 0.56 0.58 0.57 0.55 0.54 0.53 0.51 0.50 0.49 0.52 0.55 0.54 0.52 0.55 0.55 0.55 0.55 0.54 0.48 0.45 0.47 0.52 0.60 0.68 0.75 0.77 0.78 0.78 0.76 0.75 0.76 0.75 0.75 0.76 0.78 0.80 0.83 0.85 0.84 0.88 0.93 0.92
0.45 0.54 0.58 0.55 0.55 0.56 0.53 0.52 0.54 0.52 0.53 0.54 0.50 0.52 0.55 0.54 0.51 0.51 0.51 0.51 0.52 0.52 0.51 0.53 0.59 0.64 0.68 0.71 0.71 0.72 0.74 0.77 0.76 0.74 0.74 0.76 0.80 0.84 0.84 0.84 0.86 0.87 0.87
0.46 0.49 0.55 0.53 0.51 0.54 0.58 0.57 0.60 0.60 0.58 0.58 0.57 0.61 0.62 0.56 0.55 0.55 0.56 0.56 0.56 0.56 0.55 0.53 0.54 0.58 0.64 0.71 0.76 0.77 0.76 0.78 0.80 0.78 0.79 0.81 0.84 0.86 0.85 0.85 0.86 0.87 0.88
0.51 0.49 0.48 0.49 0.50 0.51 0.55 0.56 0.58 0.59 0.58 0.59 0.61 0.63 0.64 0.58 0.57 0.60 0.59 0.57 0.54 0.55 0.58 0.59 0.60 0.62 0.66 0.70 0.76 0.80 0.81 0.84 0.91 0.95 0.94 0.94 0.96 0.96 0.93 0.92 0.92 0.94 0.94
0.52 0.53 0.52 0.50 0.49 0.53 0.54 0.53 0.57 0.58 0.59 0.60 0.60 0.60 0.57 0.57 0.57 0.58 0.59 0.59 0.58 0.58 0.61 0.64 0.64 0.64 0.67 0.72 0.76 0.81 0.83 0.83 0.92 1.04 1.10 1.08 1.07 1.06 1.05 1.01 0.98 1.01 1.02
0.48 0.53 0.51 0.49 0.49 0.50 0.50 0.52 0.54 0.54 0.53 0.57 0.59 0.59 0.59 0.59 0.59 0.60 0.62 0.62 0.62 0.61 0.62 0.67 0.68 0.66 0.66 0.70 0.74 0.79 0.85 0.91 0.97 1.04 1.12 1.16 1.10 1.05 1.06 1.04 1.00 1.00 1.06
0.43 0.47 0.49 0.50 0.52 0.52 0.53 0.55 0.56 0.55 0.53 0.54 0.55 0.55 0.56 0.57 0.60 0.62 0.65 0.68 0.68 0.66 0.65 0.68 0.71 0.73 0.71 0.71 0.73 0.77 0.90 0.98 0.99 1.00 1.05 1.12 1.10 1.05 1.03 1.04 1.03 1.03 1.07
0.44 0.44 0.47 0.51 0.51 0.52 0.53 0.57 0.58 0.58 0.58 0.56 0.57 0.60 0.61 0.61 0.61 0.61 0.64 0.65 0.68 0.66 0.63 0.63 0.64 0.66 0.69 0.69 0.70 0.79 0.87 0.86 0.91 1.01 1.04 1.10 1.17 1.14 1.11 1.12 1.09 1.11 1.11